2017-03-08T15:50:16,24.56,19.19,31.81,27.56,17.81,9.56,4.15
2017-03-08T15:50:47,24.56,19.19,31.75,27.56,17.75,9.63,4.15
2017-03-08T15:51:18,24.56,19.13,31.69,27.56,17.75,9.69,4.15
2017-03-08T15:51:50,24.63,19.13,31.63,27.63,17.75,9.69,4.15
2017-03-08T15:52:21,24.69,19.13,31.56,27.63,17.75,9.69,4.15
2017-03-08T15:52:52,24.81,19.19,31.63,27.63,17.75,9.69,4.16
2017-03-08T15:53:24,24.88,19.19,31.56,27.63,17.75,9.75,4.16
2017-03-08T15:53:55,24.88,19.19,31.63,27.63,17.75,9.75,4.15
2017-03-08T15:54:27,24.88,19.19,31.69,27.69,17.75,9.69,4.15
2017-03-08T15:54:58,24.88,19.19,31.75,27.75,17.75,9.69,4.16
2017-03-08T15:55:29,24.81,19.25,31.75,27.69,17.69,9.69,4.15
2017-03-08T15:56:01,24.81,19.19,31.69,27.69,17.69,9.69,4.16
2017-03-08T15:56:32,24.88,19.25,31.69,27.63,17.69,9.63,4.16
2017-03-08T15:57:04,24.94,19.25,31.69,27.63,17.69,9.63,4.16
2017-03-08T15:57:35,25,19.31,31.69,27.56,17.69,9.56,4.16
2017-03-08T15:58:06,25,19.31,31.69,27.56,17.69,9.56,4.16
2017-03-08T15:58:38,25,19.31,31.69,27.56,17.69,9.56,4.16
2017-03-08T15:59:09,25.06,19.31,31.63,27.63,17.63,9.5,4.16
2017-03-08T15:59:41,25.06,19.31,31.63,27.69,17.63,9.5,4.16
2017-03-08T16:00:12,25.06,19.31,31.63,27.69,17.63,9.44,4.16
2017-03-08T16:00:43,25.06,19.31,31.63,27.63,17.63,9.44,4.16
2017-03-08T16:01:15,25,19.38,31.56,27.56,17.63,9.44,4.16
2017-03-08T16:01:46,25.06,19.38,31.5,27.5,17.63,9.44,4.16
2017-03-08T16:02:18,25.13,19.38,31.5,27.5,17.63,9.38,4.16
2017-03-08T16:02:49,25.19,19.44,31.38,27.44,17.63,9.44,4.16
2017-03-08T16:03:20,25.25,19.44,31.25,27.38,17.63,9.38,4.16
2017-03-08T16:03:52,25.25,19.5,31.31,27.31,17.63,9.38,4.16
2017-03-08T16:04:23,25.25,19.5,31.31,27.31,17.63,9.44,4.16
2017-03-08T16:04:55,25.25,19.5,31.25,27.31,17.63,9.44,4.16
2017-03-08T16:05:26,25.19,19.5,31.25,27.31,17.63,9.5,4.16
2017-03-08T16:05:57,25.19,19.5,31.19,27.25,17.63,9.5,4.16
2017-03-08T16:06:29,25.25,19.56,31.13,27.25,17.63,9.56,4.16
2017-03-08T16:07:00,25.25,19.56,31.13,27.19,17.63,9.69,4.16
2017-03-08T16:07:32,25.19,19.56,31.06,27.19,17.63,9.69,4.16
2017-03-08T16:08:03,25.25,19.56,30.94,27.19,17.63,9.75,4.16
2017-03-08T16:08:34,25.25,19.5,30.94,27.19,17.63,9.75,4.16
2017-03-08T16:09:06,25.25,19.56,30.75,27.31,17.63,9.75,4.16
2017-03-08T16:09:37,25.31,19.63,30.69,27.38,17.63,9.69,4.16
2017-03-08T16:10:09,25.31,19.56,30.69,27.44,17.63,9.69,4.16
2017-03-08T16:10:40,25.25,19.63,30.69,27.5,17.63,9.75,4.16
2017-03-08T16:11:11,25.13,19.69,30.81,27.56,17.63,9.75,4.16
2017-03-08T16:11:43,25.13,19.69,30.81,27.63,17.63,9.88,4.16
2017-03-08T16:12:14,25.13,19.69,30.81,27.69,17.63,9.88,4.16
2017-03-08T16:12:46,25.19,19.69,30.75,27.75,17.63,10,4.16
2017-03-08T16:13:17,25.19,19.69,30.63,27.75,17.63,10,4.16
2017-03-08T16:13:48,25.25,19.69,30.56,27.75,17.56,10.06,4.16
2017-03-08T16:14:20,25.25,19.81,30.5,27.75,17.63,10.06,4.16
2017-03-08T16:14:51,25.25,19.94,30.38,27.75,17.63,10.06,4.16
2017-03-08T16:15:23,25.31,20,30.31,27.69,17.63,10.13,4.16
2017-03-08T16:15:54,25.31,20.13,30.38,27.63,17.63,10.13,4.16
2017-03-08T16:16:26,25.31,20.06,30.5,27.5,17.63,10.13,4.16
2017-03-08T16:16:57,25.31,20,30.5,27.44,17.63,10.19,4.16
2017-03-08T16:17:28,25.38,20,30.56,27.38,17.63,10.13,4.16
2017-03-08T16:18:00,25.44,20,30.56,27.25,17.69,10.19,4.16
2017-03-08T16:18:31,25.56,20,30.63,27.19,17.69,10.25,4.16
2017-03-08T16:19:03,25.69,20,30.63,27.13,17.69,10.31,4.16
2017-03-08T16:19:34,25.63,20.06,30.63,27.13,17.69,10.38,4.16
2017-03-08T16:20:05,25.63,20.06,30.69,27.06,17.69,10.44,4.16
2017-03-08T16:20:37,25.56,20.13,30.75,27.06,17.75,10.38,4.16
2017-03-08T16:21:08,25.56,20.13,30.75,27.06,17.69,10.38,4.16
2017-03-08T16:21:40,25.63,20.19,30.75,27,17.69,10.44,4.16
2017-03-08T16:22:11,25.69,20.19,30.69,27,17.69,10.5,4.16
2017-03-08T16:22:42,25.75,20.25,30.63,26.94,17.69,10.44,4.16
2017-03-08T16:23:14,25.75,20.31,30.63,26.94,17.69,10.44,4.16
2017-03-08T16:23:45,25.81,20.38,30.69,27,17.69,10.44,4.16
2017-03-08T16:24:17,25.81,20.44,30.69,27,17.69,10.38,4.16
2017-03-08T16:24:48,25.81,20.44,30.63,26.94,17.69,10.31,4.16
2017-03-08T16:25:19,25.75,20.44,30.63,26.94,17.69,10.19,4.16
2017-03-08T16:25:51,25.75,20.38,30.63,26.94,17.69,10.06,4.16
2017-03-08T16:26:22,25.75,20.38,30.63,27,17.69,10,4.16
2017-03-08T16:26:54,25.81,20.38,30.75,27,17.69,9.94,4.16
2017-03-08T16:27:25,25.88,20.31,30.75,27,17.69,9.88,4.16
2017-03-08T16:27:56,25.88,20.31,30.81,26.94,17.69,9.94,4.16
2017-03-08T16:28:28,25.88,20.31,30.75,26.94,17.69,9.94,4.16
2017-03-08T16:28:59,25.88,20.25,30.75,26.94,17.69,9.94,4.16
2017-03-08T16:29:31,25.88,20.25,30.81,26.94,17.69,9.94,4.16
2017-03-08T16:30:02,25.81,20.25,30.81,26.94,17.69,9.94,4.16
2017-03-08T16:30:33,25.81,20.25,30.81,26.94,17.69,9.88,4.16
2017-03-08T16:31:05,25.75,20.31,30.81,27,17.69,9.81,4.16
2017-03-08T16:31:36,25.75,20.38,30.81,27,17.69,9.75,4.16
2017-03-08T16:32:08,25.75,20.38,30.81,27,17.69,9.75,4.16
2017-03-08T16:32:39,25.75,20.38,30.88,27,17.69,9.75,4.16
2017-03-08T16:33:11,25.75,20.38,30.81,27,17.69,9.69,4.16
2017-03-08T16:33:42,25.63,20.31,30.94,27.06,17.69,9.69,4.16
2017-03-08T16:34:13,25.56,20.38,30.94,27.06,17.69,9.69,4.16
2017-03-08T16:34:45,25.56,20.31,30.81,27.06,17.69,9.69,4.16
2017-03-08T16:35:16,25.69,20.31,30.81,27.06,17.69,9.63,4.16
2017-03-08T16:35:48,25.94,20.31,30.88,27,17.69,9.69,4.16
2017-03-08T16:36:19,26.06,20.38,30.94,27,17.69,9.63,4.16
2017-03-08T16:36:50,26.19,20.31,31,27,17.69,9.63,4.16
2017-03-08T16:37:22,26.31,20.31,31.06,27,17.69,9.63,4.16
2017-03-08T16:37:53,26.25,20.31,31,27,17.69,9.63,4.16
2017-03-08T16:38:25,26.13,20.31,31.06,27.06,17.69,9.63,4.16
2017-03-08T16:38:56,26.06,20.31,31.13,27.13,17.69,9.63,4.16
2017-03-08T16:39:27,26,20.31,31.19,27.19,17.69,9.63,4.16
2017-03-08T16:39:59,26,20.31,31.13,27.25,17.69,9.63,4.16
2017-03-08T16:40:30,26.06,20.38,31,27.19,17.69,9.63,4.16
2017-03-08T16:41:02,26.06,20.38,31,27.25,17.69,9.63,4.16
2017-03-08T16:41:33,26.06,20.38,31,27.31,17.69,9.69,4.16
2017-03-08T16:42:04,26.06,20.38,31.06,27.38,17.69,9.63,4.16
2017-03-08T16:42:36,26.06,20.38,31.06,27.38,17.69,9.63,4.16
2017-03-08T16:43:07,26.06,20.38,31.06,27.44,17.69,9.69,4.16
2017-03-08T16:43:39,26.19,20.38,31.13,27.44,17.69,9.69,4.16
2017-03-08T16:44:10,26.38,20.44,31.19,27.38,17.69,9.63,4.16
2017-03-08T16:44:41,26.44,20.44,31.25,27.31,17.69,9.56,4.16
2017-03-08T16:45:13,26.5,20.44,31.38,27.31,17.69,9.56,4.16
2017-03-08T16:45:44,26.44,20.5,31.44,27.38,17.69,9.69,4.16
2017-03-08T16:46:16,26.5,20.5,31.5,27.38,17.75,9.69,4.16
2017-03-08T16:46:47,26.56,20.44,31.5,27.38,17.69,9.81,4.16
2017-03-08T16:47:18,26.63,20.5,31.44,27.38,17.69,9.88,4.16
2017-03-08T16:47:50,26.75,20.5,31.5,27.38,17.69,9.94,4.16
2017-03-08T16:48:21,26.81,20.44,31.5,27.38,17.69,10,4.16
2017-03-08T16:48:53,26.88,20.5,31.63,27.44,17.69,10.06,4.16
2017-03-08T16:49:24,26.94,20.5,31.63,27.38,17.69,10.13,4.16
2017-03-08T16:49:55,26.94,20.5,31.75,27.31,17.69,10.19,4.16
2017-03-08T16:50:27,26.94,20.5,31.69,27.38,17.69,10.19,4.16
2017-03-08T16:50:58,26.94,20.5,31.63,27.38,17.69,10.19,4.16
2017-03-08T16:51:30,26.88,20.5,31.56,27.38,17.69,10.19,4.16
2017-03-08T16:52:01,26.88,20.5,31.56,27.38,17.69,10.13,4.16
2017-03-08T16:52:32,26.88,20.44,31.56,27.38,17.75,10.19,4.16
2017-03-08T16:53:04,26.81,20.44,31.69,27.44,17.69,10.31,4.16
2017-03-08T16:53:35,26.75,20.44,31.69,27.5,17.69,10.31,4.16
2017-03-08T16:54:07,26.75,20.44,31.75,27.56,17.69,10.31,4.16
2017-03-08T16:54:38,26.75,20.38,31.75,27.56,17.69,10.31,4.16
2017-03-08T16:55:09,26.81,20.38,31.69,27.56,17.69,10.38,4.16
2017-03-08T16:55:41,26.94,20.38,31.63,27.56,17.69,10.31,4.16
2017-03-08T16:56:12,27,20.38,31.63,27.5,17.69,10.31,4.16
2017-03-08T16:56:44,27.06,20.38,31.69,27.44,17.69,10.19,4.16
2017-03-08T16:57:15,27,20.38,31.69,27.44,17.69,10.13,4.16
2017-03-08T16:57:47,27.06,20.38,31.69,27.38,17.69,10.13,4.16
2017-03-08T16:58:18,27.06,20.38,31.63,27.25,17.69,10.06,4.16
2017-03-08T16:58:49,27,20.38,31.56,27.19,17.69,10.06,4.16
2017-03-08T16:59:21,26.94,20.38,31.56,27.19,17.69,10,4.16
2017-03-08T16:59:52,26.94,20.38,31.56,27.13,17.69,10,4.16
2017-03-08T17:00:24,27.06,20.38,31.56,27.13,17.69,10,4.16
2017-03-08T17:00:55,27.13,20.38,31.44,27.06,17.69,10,4.16
2017-03-08T17:01:26,27,20.38,31.44,27.06,17.69,9.94,4.16
2017-03-08T17:01:58,26.88,20.38,31.5,27.06,17.69,9.81,4.16
2017-03-08T17:02:29,26.81,20.38,31.5,27,17.69,9.75,4.16
2017-03-08T17:03:01,26.94,20.38,31.5,27,17.69,9.69,4.16
2017-03-08T17:03:32,26.94,20.38,31.5,26.94,17.69,9.69,4.16
2017-03-08T17:04:03,26.94,20.38,31.5,26.94,17.69,9.63,4.16
2017-03-08T17:04:35,26.94,20.38,31.44,27,17.69,9.56,4.16
2017-03-08T17:05:06,26.94,20.31,31.5,27,17.69,9.5,4.16
2017-03-08T17:05:38,26.94,20.31,31.5,27,17.69,9.44,4.16
2017-03-08T17:06:09,26.88,20.31,31.5,27,17.69,9.31,4.16
2017-03-08T17:06:41,26.75,20.31,31.44,27,17.69,9.25,4.16
2017-03-08T17:07:12,26.75,20.31,31.38,26.94,17.75,9.25,4.16
2017-03-08T17:07:43,26.88,20.31,31.31,26.94,17.69,9.19,4.16
2017-03-08T17:08:15,26.94,20.31,31.13,26.88,17.69,9.13,4.16
2017-03-08T17:08:46,26.94,20.31,31.06,26.94,17.69,9.13,4.16
2017-03-08T17:09:18,26.94,20.31,31,26.94,17.69,9.06,4.16
2017-03-08T17:09:49,27,20.31,30.94,26.94,17.75,9.06,4.16
2017-03-08T17:10:20,27,20.31,30.88,27,17.75,9.06,4.16
2017-03-08T17:10:52,27.06,20.31,30.81,27,17.75,9.06,4.16
2017-03-08T17:11:23,27.06,20.31,30.81,27,17.75,9,4.16
2017-03-08T17:11:55,27.06,20.31,30.75,27,17.75,9,4.16
2017-03-08T17:12:26,27,20.31,30.63,27,17.75,9,4.16
2017-03-08T17:12:57,26.94,20.38,30.56,27,17.75,9.06,4.16
2017-03-08T17:13:29,26.94,20.31,30.44,27,17.75,9.06,4.16
2017-03-08T17:14:00,26.88,20.31,30.5,27,17.75,9.06,4.16
2017-03-08T17:14:32,26.88,20.31,30.44,27,17.75,9,4.16
2017-03-08T17:15:03,26.88,20.31,30.44,26.94,17.75,8.94,4.16
2017-03-08T17:15:34,26.75,20.31,30.56,27,17.75,8.88,4.16
2017-03-08T17:16:06,26.69,20.31,30.69,27,17.75,8.75,4.16
2017-03-08T17:16:37,26.69,20.31,30.88,27,17.75,8.75,4.16
2017-03-08T17:17:09,26.69,20.31,31,27,17.75,8.75,4.16
2017-03-08T17:17:40,26.69,20.31,31.06,27,17.75,8.75,4.16
2017-03-08T17:18:11,26.69,20.31,31.13,27.06,17.75,8.75,4.16
2017-03-08T17:18:43,26.63,20.31,31.19,27.06,17.75,8.69,4.16
2017-03-08T17:19:14,26.75,20.31,31.19,27.06,17.75,8.63,4.16
2017-03-08T17:19:46,26.75,20.31,31.31,27.06,17.75,8.63,4.16
2017-03-08T17:20:17,26.69,20.31,31.31,27.06,17.75,8.63,4.16
2017-03-08T17:20:49,26.69,20.31,31.25,27.06,17.75,8.63,4.16
2017-03-08T17:21:20,26.63,20.38,31.19,27.06,17.75,8.5,4.16
2017-03-08T17:21:51,26.63,20.38,31.25,27.06,17.75,8.44,4.16
2017-03-08T17:22:23,26.69,20.38,31.25,27.13,17.75,8.44,4.16
2017-03-08T17:22:54,26.63,20.38,31.25,27.13,17.75,8.44,4.16
2017-03-08T17:23:26,26.56,20.38,31.31,27.06,17.75,8.38,4.16
2017-03-08T17:23:57,26.56,20.38,31.31,27.06,17.75,8.38,4.16
2017-03-08T17:24:28,26.56,20.38,31.25,27.06,17.75,8.31,4.16
2017-03-08T17:25:00,26.63,20.38,31.25,27.06,17.75,8.31,4.16
2017-03-08T17:25:31,26.69,20.38,31.25,27.13,17.75,8.38,4.16
2017-03-08T17:26:03,26.69,20.5,31.19,27.25,17.75,8.38,4.16
2017-03-08T17:26:34,26.63,20.5,31.19,27.25,17.75,8.38,4.16
2017-03-08T17:27:05,26.69,20.44,31.13,27.25,17.75,8.38,4.16
2017-03-08T17:27:37,26.69,20.44,31.19,27.25,17.75,8.38,4.16
2017-03-08T17:28:08,26.69,20.44,31.19,27.25,17.75,8.38,4.16
2017-03-08T17:28:40,26.75,20.44,31.25,27.19,17.75,8.38,4.16
2017-03-08T17:29:11,26.81,20.5,31.31,27.19,17.75,8.38,4.16
2017-03-08T17:29:42,26.88,20.5,31.31,27.19,17.75,8.38,4.16
2017-03-08T17:30:14,27,20.63,31.44,27.13,17.75,8.38,4.16
2017-03-08T17:30:45,27.06,20.75,31.5,27.13,17.75,8.38,4.16
2017-03-08T17:31:17,27.06,20.88,31.56,27.13,17.75,8.44,4.16
2017-03-08T17:31:48,27,20.94,31.63,27.13,17.75,8.5,4.16
2017-03-08T17:32:19,27.06,20.94,31.69,27.13,17.75,8.5,4.16
2017-03-08T17:32:51,27.06,20.94,31.69,27.19,17.75,8.44,4.16
2017-03-08T17:33:22,27.06,20.94,31.63,27.19,17.75,8.44,4.16
2017-03-08T17:33:54,27.06,21,31.63,27.13,17.75,8.44,4.16
2017-03-08T17:34:25,27,20.94,31.63,27.13,17.75,8.5,4.16
2017-03-08T17:34:56,26.88,20.88,31.63,27.19,17.81,8.5,4.16
2017-03-08T17:35:28,26.81,20.81,31.56,27.19,17.75,8.5,4.16
2017-03-08T17:35:59,26.81,20.81,31.56,27.25,17.75,8.44,4.16
2017-03-08T17:36:31,26.88,20.75,31.5,27.25,17.75,8.44,4.16
2017-03-08T17:37:02,26.88,20.81,31.44,27.25,17.75,8.5,4.15
2017-03-08T17:37:33,26.88,20.81,31.56,27.25,17.75,8.5,4.16
2017-03-08T17:38:05,26.81,20.81,31.56,27.31,17.75,8.56,4.16
2017-03-08T17:38:36,26.75,20.81,31.63,27.31,17.75,8.56,4.15
2017-03-08T17:39:08,26.75,20.75,31.69,27.31,17.75,8.56,4.16
2017-03-08T17:39:39,26.69,20.75,31.69,27.31,17.75,8.56,4.16
2017-03-08T17:40:10,26.75,20.75,31.75,27.25,17.75,8.56,4.16
2017-03-08T17:40:42,26.81,20.69,31.81,27.25,17.81,8.63,4.16
2017-03-08T17:41:13,26.88,20.69,31.81,27.19,17.81,8.63,4.16
2017-03-08T17:41:45,26.88,20.69,31.81,27.13,17.81,8.63,4.16
2017-03-08T17:42:16,26.81,20.69,31.88,27.13,17.81,8.63,4.15
2017-03-08T17:42:47,26.75,20.69,31.88,27.13,17.81,8.56,4.16
2017-03-08T17:43:19,26.75,20.69,31.88,27.19,17.81,8.56,4.15
2017-03-08T17:43:50,26.81,20.69,31.94,27.19,17.81,8.56,4.15
2017-03-08T17:44:22,27,20.69,31.94,27.19,17.81,8.56,4.15
2017-03-08T17:44:53,27.06,20.75,32,27.13,17.81,8.56,4.16
2017-03-08T17:45:24,27.13,20.75,32.13,27.19,17.81,8.56,4.15
2017-03-08T17:45:56,27.19,20.75,32.13,27.19,17.81,8.56,4.16
2017-03-08T17:46:27,27.25,20.75,32.19,27.25,17.81,8.56,4.15
2017-03-08T17:46:59,27.31,20.75,32.19,27.31,17.81,8.56,4.15
2017-03-08T17:47:30,27.38,20.75,32.19,27.38,17.81,8.63,4.15
2017-03-08T17:48:01,27.38,20.75,32.25,27.38,17.81,8.56,4.15
2017-03-08T17:48:33,27.38,20.75,32.19,27.38,17.75,8.56,4.16
2017-03-08T17:49:04,27.31,20.81,32.25,27.38,17.75,8.56,4.15
2017-03-08T17:49:35,27.38,20.75,32.25,27.38,17.81,8.56,4.16
2017-03-08T17:50:07,27.5,20.81,32.31,27.31,17.75,8.56,4.16
2017-03-08T17:50:38,27.63,20.81,32.31,27.31,17.81,8.56,4.16
2017-03-08T17:51:10,27.75,20.81,32.31,27.25,17.75,8.56,4.15
2017-03-08T17:51:41,27.81,20.81,32.31,27.25,17.75,8.63,4.15
2017-03-08T17:52:12,27.69,20.81,32.19,27.31,17.75,8.63,4.15
2017-03-08T17:52:44,27.75,20.81,32.06,27.38,17.75,8.63,4.16
2017-03-08T17:53:15,27.69,20.81,32,27.5,17.75,8.56,4.15
2017-03-08T17:53:47,27.63,20.81,31.88,27.63,17.75,8.56,4.15
2017-03-08T17:54:18,27.56,20.88,31.88,27.63,17.75,8.56,4.15
2017-03-08T17:54:49,27.5,21,31.81,27.63,17.81,8.56,4.15
2017-03-08T17:55:21,27.5,21,31.75,27.63,17.81,8.56,4.15
2017-03-08T17:55:52,27.44,21,31.88,27.63,17.81,8.56,4.15
2017-03-08T17:56:24,27.38,21,31.94,27.63,17.81,8.56,4.15
2017-03-08T17:56:55,27.31,21,32.06,27.63,17.81,8.56,4.15
2017-03-08T17:57:26,27.25,21,32.19,27.56,17.81,8.56,4.15
2017-03-08T17:57:58,27.13,20.94,32.06,27.5,17.81,8.56,4.15
2017-03-08T17:58:29,27.13,21,32.13,27.44,17.81,8.63,4.15
2017-03-08T17:59:01,27.13,21.06,32.13,27.44,17.81,8.63,4.15
2017-03-08T17:59:32,27.06,21.06,32.19,27.5,17.81,8.56,4.15
2017-03-08T18:00:03,27,21.06,32.19,27.5,17.81,8.56,4.15
2017-03-08T18:00:35,27,21,32.13,27.44,17.81,8.56,4.15
2017-03-08T18:01:06,27,21,32.13,27.44,17.81,8.56,4.15
2017-03-08T18:01:38,26.94,21,32.19,27.44,17.75,8.63,4.15
2017-03-08T18:02:09,26.94,21,32.19,27.44,17.81,8.56,4.15
2017-03-08T18:02:40,26.94,20.94,32.25,27.38,17.75,8.5,4.15
2017-03-08T18:03:12,26.94,20.94,32.25,27.31,17.75,8.44,4.15
2017-03-08T18:03:43,26.94,20.94,32.31,27.25,17.75,8.44,4.15
2017-03-08T18:04:14,26.94,21,32.38,27.19,17.81,8.38,4.15
2017-03-08T18:04:46,26.94,21,32.31,27.19,17.81,8.38,4.15
2017-03-08T18:05:17,26.94,21.06,32.31,27.13,17.81,8.31,4.15
2017-03-08T18:05:49,26.88,21.13,32.31,27.13,17.81,8.38,4.15
2017-03-08T18:06:20,26.94,21.13,32.38,27.13,17.81,8.38,4.15
2017-03-08T18:06:51,27,21.13,32.38,27.13,17.81,8.38,4.15
2017-03-08T18:07:23,27,21.13,32.31,27.13,17.75,8.44,4.15
2017-03-08T18:07:54,27.06,21.13,32.31,27.06,17.81,8.44,4.15
2017-03-08T18:08:26,27.06,21.13,32.31,27.06,17.75,8.38,4.15
2017-03-08T18:08:57,27.13,21.13,32.25,27.06,17.75,8.31,4.15
2017-03-08T18:09:28,27.06,21.13,32.19,27.06,17.75,8.31,4.15
2017-03-08T18:10:00,27.06,21.13,32.25,27.06,17.75,8.31,4.15
2017-03-08T18:10:31,26.94,21.13,32.31,27.06,17.75,8.31,4.15
2017-03-08T18:11:03,26.94,21.13,32.25,27.06,17.75,8.31,4.15
2017-03-08T18:11:34,26.94,21.13,32.25,27.06,17.75,8.31,4.15
2017-03-08T18:12:05,27,21.13,32.25,27.06,17.75,8.25,4.15
2017-03-08T18:12:37,27,21.13,32.19,27.06,17.75,8.25,4.15
2017-03-08T18:13:08,27.06,21.13,32.13,27.06,17.69,8.25,4.15
2017-03-08T18:13:39,27.06,21.13,32.13,27.06,17.75,8.25,4.15
2017-03-08T18:14:11,27,21.13,32.06,27.06,17.69,8.25,4.15
2017-03-08T18:14:42,26.94,21.13,32.06,27.06,17.69,8.25,4.15
2017-03-08T18:15:14,26.88,21.13,32.06,27.13,17.69,8.31,4.15
2017-03-08T18:15:45,26.88,21.13,32,27.19,17.69,8.31,4.15
2017-03-08T18:16:16,26.94,21.13,32,27.19,17.69,8.25,4.15
2017-03-08T18:16:48,26.94,21.19,32.06,27.19,17.69,8.25,4.15
2017-03-08T18:17:19,26.88,21.19,32.13,27.19,17.69,8.19,4.15
2017-03-08T18:17:51,26.88,21.13,32.13,27.19,17.69,8.19,4.15
2017-03-08T18:18:22,26.88,21.13,32.19,27.19,17.69,8.19,4.15
2017-03-08T18:18:53,26.94,21.13,32.19,27.19,17.69,8.19,4.15
2017-03-08T18:19:25,26.88,21.13,32.19,27.19,17.69,8.19,4.15
2017-03-08T18:19:56,26.88,21.06,32.25,27.19,17.69,8.19,4.15
2017-03-08T18:20:28,26.81,21.13,32.25,27.19,17.69,8.19,4.15
2017-03-08T18:20:59,26.81,21.06,32.25,27.25,17.69,8.19,4.15
2017-03-08T18:21:30,26.69,21.06,32.25,27.31,17.69,8.19,4.15
2017-03-08T18:22:02,26.69,21.06,32.25,27.44,17.69,8.25,4.15
2017-03-08T18:22:33,26.69,21.06,32.31,27.5,17.69,8.25,4.15
2017-03-08T18:23:04,26.69,21.13,32.25,27.56,17.69,8.25,4.15
2017-03-08T18:23:36,26.69,21.13,32.19,27.56,17.63,8.19,4.15
2017-03-08T18:24:07,26.75,21.13,32.06,27.56,17.63,8.19,4.15
2017-03-08T18:24:39,26.81,21.19,32,27.56,17.63,8.25,4.15
2017-03-08T18:25:10,26.75,21.19,32,27.63,17.63,8.25,4.15
2017-03-08T18:25:41,26.75,21.25,32,27.69,17.63,8.31,4.15
2017-03-08T18:26:13,26.75,21.25,31.88,27.69,17.63,8.31,4.15
2017-03-08T18:26:44,26.75,21.25,31.81,27.69,17.63,8.31,4.15
2017-03-08T18:27:16,26.81,21.25,31.81,27.69,17.63,8.31,4.15
2017-03-08T18:27:47,26.75,21.25,31.88,27.69,17.63,8.31,4.15
2017-03-08T18:28:18,26.75,21.25,31.94,27.69,17.63,8.31,4.15
2017-03-08T18:28:50,26.69,21.25,31.94,27.69,17.63,8.38,4.15
2017-03-08T18:29:21,26.69,21.25,32,27.69,17.63,8.38,4.15
2017-03-08T18:29:52,26.63,21.25,31.94,27.69,17.63,8.38,4.15
2017-03-08T18:30:24,26.69,21.31,31.88,27.69,17.63,8.38,4.15
2017-03-08T18:30:55,26.81,21.31,31.88,27.63,17.63,8.38,4.15
2017-03-08T18:31:27,26.81,21.38,31.88,27.56,17.63,8.38,4.15
2017-03-08T18:31:58,26.88,21.38,31.81,27.56,17.63,8.38,4.15
2017-03-08T18:32:29,26.94,21.38,31.94,27.56,17.63,8.38,4.15
2017-03-08T18:33:01,27,21.38,31.94,27.56,17.63,8.38,4.15
2017-03-08T18:33:32,27.13,21.38,31.94,27.5,17.63,8.38,4.15
2017-03-08T18:34:04,27.13,21.38,31.94,27.56,17.63,8.38,4.15
2017-03-08T18:34:35,27.13,21.38,31.94,27.56,17.63,8.38,4.15
2017-03-08T18:35:06,27.19,21.44,31.94,27.56,17.63,8.38,4.15
2017-03-08T18:35:38,27.31,21.44,32,27.56,17.63,8.38,4.15
2017-03-08T18:36:09,27.31,21.44,32,27.5,17.63,8.38,4.15
2017-03-08T18:36:40,27.38,21.5,32,27.5,17.63,8.38,4.15
2017-03-08T18:37:12,27.38,21.5,32.06,27.5,17.63,8.38,4.15
2017-03-08T18:37:43,27.38,21.5,32,27.44,17.63,8.38,4.15
2017-03-08T18:38:15,27.38,21.5,32.06,27.44,17.63,8.38,4.15
2017-03-08T18:38:46,27.31,21.5,32.06,27.44,17.63,8.38,4.15
2017-03-08T18:39:17,27.38,21.5,32.06,27.5,17.63,8.38,4.15
2017-03-08T18:39:49,27.31,21.5,32.13,27.5,17.63,8.38,4.15
2017-03-08T18:40:20,27.38,21.5,32.13,27.5,17.63,8.38,4.15
2017-03-08T18:40:52,27.38,21.56,32.13,27.44,17.63,8.38,4.15
2017-03-08T18:41:23,27.44,21.56,32.06,27.44,17.56,8.38,4.15
2017-03-08T18:41:54,27.5,21.56,32.13,27.44,17.63,8.38,4.15
2017-03-08T18:42:26,27.56,21.56,32.19,27.44,17.63,8.38,4.15
2017-03-08T18:42:57,27.44,21.5,32.13,27.44,17.63,8.38,4.15
2017-03-08T18:43:28,27.38,21.5,32.13,27.44,17.63,8.38,4.15
2017-03-08T18:44:00,27.44,21.5,32.13,27.44,17.63,8.38,4.15
2017-03-08T18:44:31,27.44,21.5,32.13,27.38,17.63,8.38,4.15
2017-03-08T18:45:03,27.44,21.44,32.13,27.38,17.63,8.38,4.15
2017-03-08T18:45:34,27.44,21.44,32.06,27.38,17.63,8.38,4.15
2017-03-08T18:46:05,27.44,21.44,32,27.44,17.63,8.38,4.15
2017-03-08T18:46:37,27.44,21.44,32,27.5,17.56,8.31,4.15
2017-03-08T18:47:08,27.44,21.44,32,27.5,17.56,8.31,4.15
2017-03-08T18:47:40,27.44,21.5,32,27.5,17.56,8.31,4.15
2017-03-08T18:48:11,27.38,21.56,32.06,27.56,17.56,8.31,4.15
2017-03-08T18:48:42,27.31,21.56,32.06,27.56,17.56,8.31,4.15
2017-03-08T18:49:14,27.31,21.5,32.06,27.56,17.56,8.31,4.15
2017-03-08T18:49:45,27.31,21.5,32,27.5,17.56,8.31,4.15
2017-03-08T18:50:16,27.31,21.5,32,27.56,17.56,8.31,4.15
2017-03-08T18:50:48,27.38,21.5,31.94,27.56,17.56,8.31,4.15
2017-03-08T18:51:19,27.38,21.5,31.94,27.56,17.5,8.31,4.15
2017-03-08T18:51:51,27.44,21.5,31.88,27.56,17.5,8.31,4.15
2017-03-08T18:52:22,27.44,21.5,31.88,27.63,17.5,8.31,4.15
2017-03-08T18:52:53,27.5,21.5,31.81,27.56,17.5,8.31,4.15
2017-03-08T18:53:25,27.63,21.5,31.75,27.56,17.5,8.31,4.15
2017-03-08T18:53:56,27.63,21.56,31.69,27.56,17.5,8.31,4.15
2017-03-08T18:54:27,27.56,21.56,31.69,27.56,17.5,8.31,4.15
2017-03-08T18:54:59,27.56,21.56,31.69,27.56,17.5,8.31,4.15
2017-03-08T18:55:30,27.5,21.63,31.75,27.56,17.44,8.25,4.15
2017-03-08T18:56:02,27.44,21.63,31.75,27.56,17.44,8.25,4.15
2017-03-08T18:56:33,27.38,21.63,31.81,27.56,17.44,8.25,4.15
2017-03-08T18:57:04,27.38,21.63,31.75,27.56,17.44,8.25,4.15
2017-03-08T18:57:36,27.38,21.69,31.75,27.5,17.44,8.25,4.15
2017-03-08T18:58:07,27.44,21.75,31.75,27.5,17.44,8.25,4.15
2017-03-08T18:58:38,27.5,21.75,31.69,27.44,17.44,8.25,4.15
2017-03-08T18:59:10,27.5,21.75,31.63,27.44,17.44,8.25,4.15
2017-03-08T18:59:41,27.56,21.75,31.63,27.5,17.44,8.25,4.15
2017-03-08T19:00:13,27.63,21.75,31.63,27.56,17.44,8.25,4.15
2017-03-08T19:00:44,27.69,21.75,31.56,27.56,17.44,8.25,4.15
2017-03-08T19:01:15,27.69,21.81,31.5,27.56,17.44,8.25,4.15
2017-03-08T19:01:47,27.63,21.88,31.44,27.56,17.44,8.25,4.15
2017-03-08T19:02:18,27.56,21.94,31.5,27.5,17.44,8.25,4.15
2017-03-08T19:02:50,27.56,22,31.44,27.56,17.44,8.19,4.15
2017-03-08T19:03:21,27.63,22.06,31.44,27.56,17.44,8.25,4.15
2017-03-08T19:03:52,27.63,22.13,31.5,27.56,17.44,8.25,4.15
2017-03-08T19:04:24,27.69,22.13,31.5,27.5,17.38,8.19,4.15
2017-03-08T19:04:55,27.69,22.13,31.56,27.5,17.44,8.19,4.15
2017-03-08T19:05:26,27.75,22.13,31.56,27.44,17.38,8.19,4.15
2017-03-08T19:05:58,27.75,22.13,31.56,27.44,17.38,8.19,4.15
2017-03-08T19:06:29,27.75,22.13,31.56,27.44,17.38,8.19,4.15
2017-03-08T19:07:01,27.75,22.13,31.63,27.44,17.38,8.19,4.15
2017-03-08T19:07:32,27.81,22.13,31.56,27.5,17.38,8.19,4.15
2017-03-08T19:08:03,27.94,22.13,31.56,27.5,17.38,8.13,4.15
2017-03-08T19:08:35,27.94,22.13,31.44,27.5,17.38,8.06,4.15
2017-03-08T19:09:06,27.88,22.13,31.44,27.56,17.38,8.06,4.15
2017-03-08T19:09:37,27.94,22.13,31.38,27.56,17.38,8,4.15
2017-03-08T19:10:09,27.94,22.13,31.38,27.5,17.38,8,4.15
2017-03-08T19:10:40,27.94,22.13,31.44,27.5,17.38,8.06,4.15
2017-03-08T19:11:12,27.81,22.13,31.44,27.44,17.38,8.06,4.15
2017-03-08T19:11:43,27.75,22.06,31.56,27.5,17.38,8.06,4.15
2017-03-08T19:12:14,27.69,22.06,31.69,27.5,17.38,8,4.15
2017-03-08T19:12:46,27.69,22,31.81,27.5,17.31,8,4.15
2017-03-08T19:13:17,27.63,22,31.88,27.5,17.31,8,4.15
2017-03-08T19:13:48,27.56,21.94,31.94,27.56,17.31,8,4.15
2017-03-08T19:14:20,27.63,22,32,27.63,17.31,8,4.15
2017-03-08T19:14:51,27.56,22,32,27.56,17.31,8,4.15
2017-03-08T19:15:23,27.5,21.94,32,27.56,17.31,8,4.15
2017-03-08T19:15:54,27.5,21.81,32.06,27.5,17.31,7.94,4.15
2017-03-08T19:16:25,27.56,21.81,32.06,27.5,17.31,7.94,4.15
2017-03-08T19:16:57,27.56,21.75,32.13,27.44,17.31,7.88,4.15
2017-03-08T19:17:28,27.5,21.75,32.13,27.38,17.31,7.88,4.15
2017-03-08T19:17:59,27.44,22,32.13,27.38,17.31,7.88,4.15
2017-03-08T19:18:31,27.44,22.06,32.13,27.44,17.31,7.88,4.15
2017-03-08T19:19:02,27.44,22.25,32.13,27.44,17.31,7.88,4.15
2017-03-08T19:19:34,27.44,22.25,32.13,27.38,17.25,7.88,4.15